Location: Newark
(52.3500°N, 175.9667°E)
Time: 07:08:08
(UTC+00:00)

S-56A Canister/Altair - Pass Details

Date: 22 April 2021
Orbit: 631 x 2501 km, 38.9° (Epoch: 12 May)

Event Time Altitude Azimuth Distance (km) Brightness Sun altitude
Rises 12:40:59 0° 245° (WSW) 4,307 - -25.0°
Reaches altitude 10° 12:44:56 10° 232° (SW) 2,997 - -24.9°
Maximum altitude 12:50:07 23° 184° (S) 1,839 - -24.8°
Drops below altitude 10° 12:54:11 10° 133° (SE) 2,295 - -24.7°
Sets 12:56:46 0° 118° (ESE) 3,075 - -24.6°
